Temp
62 61 59 59 59 58 57 57 56 55 55 55 55 54 54 53 53 51 51 51 50 49 49 49 48 49 47 46 45 45 44 43 38 41 44 45 44 44 45 46 47 46 47
63 61 59 58 58 57 57 57 56 55 56 56 56 55 55 54 52 51 50 51 49 48 48 48 47 52 45 44 43 43 42 42 39 38 42 43 42 43 43 43 45 48 45
63 61 58 57 57 56 56 56 56 56 56 56 56 55 54 53 52 52 51 50 49 48 47 47 46 45 41 40 41 41 41 44 40 38 38 41 41 41 40 41 41 41 45
63 60 58 57 57 56 56 56 56 56 55 55 55 55 54 54 54 54 53 50 49 49 48 48 46 43 40 39 41 39 40 38 38 37 37 37 39 41 40 37 36 39 39
62 60 57 57 57 57 55 55 55 55 56 56 55 54 54 54 56 52 52 50 49 49 49 51 47 45 43 41 40 37 37 36 36 35 34 37 37 35 34 36 35 37 38
61 59 59 58 57 56 55 55 55 55 55 55 54 54 52 57 40 43 43 49 51 49 47 48 47 43 43 41 41 39 37 35 34 37 36 34 34 35 36 34 34 34 32
61 60 59 58 57 56 57 56 55 53 53 52 53 53 52 44 41 42 42 46 48 47 46 46 49 48 42 40 40 41 41 38 38 36 35 35 34 36 36 34 34 34 34
61 61 59 58 58 56 56 55 53 53 52 52 52 53 52 47 40 41 40 43 47 48 47 46 44 42 36 37 37 40 43 41 39 41 38 38 38 38 38 37 36 37 37
61 61 61 59 58 56 54 52 53 53 52 52 54 52 51 42 39 40 40 45 49 48 50 48 46 42 37 38 37 38 38 36 41 41 40 39 39 39 39 37 34 33 32
63 63 62 61 59 56 55 54 54 54 54 56 55 53 50 44 39 39 40 45 46 47 48 40 37 37 36 36 35 35 31 31 34 35 37 38 40 41 40 39 36 33 31
65 65 63 61 59 58 56 55 54 54 55 52 53 52 52 44 40 39 39 44 45 45 45 43 38 36 36 37 36 35 32 35 34 34 35 35 36 38 37 37 38 34 32
65 64 63 61 62 60 56 55 55 54 52 51 50 49 49 48 41 38 39 38 38 42 43 41 36 37 37 37 35 36 36 33 34 34 33 33 33 34 34 36 37 36 35
64 62 62 61 61 60 56 54 53 53 50 50 49 45 44 47 41 38 38 39 38 37 41 36 38 38 38 34 35 35 33 34 34 33 33 33 33 34 34 34 38 39 38
62 61 61 59 58 58 58 55 52 50 48 50 47 44 43 43 38 36 38 35 33 34 36 36 36 34 32 32 31 34 36 35 34 33 33 33 34 33 33 32 34 34 33
63 62 60 59 58 57 57 54 53 53 51 49 49 47 44 41 41 41 40 38 37 37 38 38 35 36 36 35 35 34 34 35 34 33 32 33 33 33 33 32 32 34 32
61 61 58 56 56 56 53 43 38 48 43 46 46 48 50 46 41 40 39 38 37 34 36 34 33 33 32 32 32 31 31 34 33 33 32 32 32 32 32 32 32 34 31
62 61 58 55 54 52 49 46 41 38 38 41 41 42 42 40 38 38 37 37 36 35 33 33 33 32 32 32 32 31 30 34 34 33 32 32 32 32 32 31 32 33 32
63 48 59 56 54 51 52 48 46 42 41 38 37 41 38 38 37 37 36 36 32 33 34 34 34 35 36 34 32 31 31 33 33 33 32 32 32 31 31 30 32 32 31
63 61 58 55 53 51 51 49 47 45 44 42 37 35 34 36 36 36 36 35 35 34 34 35 37 37 36 35 32 30 31 31 32 32 32 31 31 31 31 31 32 32 32
62 50 51 54 51 50 50 48 46 44 44 43 41 39 35 34 33 33 34 34 35 37 38 38 38 37 34 33 32 30 29 33 32 32 31 31 31 31 31 31 32 32 32
57 50 49 53 51 51 49 48 47 45 44 43 42 41 38 38 35 35 35 35 36 36 36 37 35 35 34 33 32 30 30 32 32 32 32 31 31 31 32 32 32 32 32
53 50 51 51 50 49 49 49 47 46 45 44 43 39 37 39 38 38 37 37 38 38 39 37 36 36 35 34 32 30 28 32 32 32 31 32 31 31 32 32 32 32 32
52 49 49 49 49 44 44 47 46 46 45 45 44 39 38 39 40 40 38 37 38 39 38 37 36 34 34 33 33 32 29 32 32 31 30 30 31 31 32 31 32 32 32
52 49 47 46 44 45 46 45 45 42 45 44 42 39 40 40 37 37 37 36 38 36 36 35 37 36 34 32 31 31 33 33 32 32 31 30 31 32 31 31 31 32 32
49 46 45 45 43 44 41 44 43 43 42 41 38 40 41 40 38 36 36 36 36 35 35 34 35 35 32 32 31 33 32 32 30 27 30 31 31 31 31 31 32 32 32
46 44 44 44 43 42 42 40 39 40 40 38 39 38 39 39 38 36 36 36 35 35 35 35 34 33 32 31 30 29 26 31 26 26 29 31 31 31 31 32 32 32 33
MSLP
1018.86 1019.83 1020.56 1021.07 1021.65 1022.26 1022.81 1023.40 1023.92 1024.48 1025.02 1025.27 1025.67 1025.92 1026.33 1026.62 1026.73 1026.95 1027.20 1027.28 1027.39 1027.67 1027.67 1028.00 1028.46 1028.16 1028.31 1028.21 1028.18 1028.03 1027.85 1027.85 1027.86 1027.29 1026.90 1026.32 1026.07 1025.95 1025.47 1025.17 1024.64 1024.25 1023.67
1018.55 1019.53 1020.35 1021.00 1021.65 1022.33 1022.80 1023.35 1023.93 1024.56 1024.97 1025.41 1025.71 1025.99 1026.40 1026.68 1026.81 1027.05 1027.31 1027.58 1027.71 1028.00 1028.24 1028.43 1028.59 1028.66 1028.68 1028.76 1028.76 1028.47 1028.35 1028.22 1028.13 1027.64 1027.23 1026.78 1026.50 1026.26 1025.93 1025.66 1025.14 1024.58 1024.07
1018.23 1019.27 1020.14 1020.90 1021.59 1022.20 1022.77 1023.43 1024.08 1024.57 1024.96 1025.37 1025.70 1026.03 1026.35 1026.76 1027.03 1027.18 1027.52 1027.68 1028.06 1028.38 1028.56 1028.64 1028.85 1029.08 1029.34 1029.40 1029.20 1029.06 1028.96 1028.75 1028.40 1028.25 1027.70 1027.25 1027.06 1026.65 1026.45 1026.09 1025.70 1025.02 1024.31
1017.93 1019.03 1020.00 1020.73 1021.41 1022.04 1022.75 1023.39 1023.97 1024.44 1024.92 1025.26 1025.56 1025.90 1026.35 1026.68 1026.92 1026.98 1027.42 1027.95 1028.19 1028.32 1028.45 1028.53 1028.88 1029.29 1029.60 1029.75 1029.66 1029.59 1029.37 1029.12 1028.82 1028.60 1028.22 1027.93 1027.49 1027.07 1026.98 1026.64 1025.80 1025.28 1024.56
1017.62 1018.75 1019.74 1020.56 1021.25 1021.94 1022.69 1023.28 1023.72 1024.21 1024.68 1024.95 1025.48 1025.90 1026.22 1026.55 1026.83 1027.33 1027.62 1028.12 1028.19 1028.22 1028.23 1028.22 1028.66 1029.13 1029.52 1029.84 1029.98 1029.73 1029.58 1029.40 1029.25 1029.04 1028.82 1028.37 1027.90 1027.60 1027.32 1027.04 1026.52 1025.67 1024.79
1017.30 1018.40 1019.45 1020.37 1021.13 1021.88 1022.54 1023.08 1023.55 1023.97 1024.43 1024.86 1025.33 1025.83 1026.33 1026.61 1027.96 1028.21 1028.39 1028.29 1028.22 1028.24 1028.29 1028.35 1028.56 1029.39 1029.37 1029.86 1029.79 1029.62 1029.50 1029.50 1029.52 1029.44 1029.23 1028.83 1028.58 1028.29 1027.81 1027.39 1026.64 1025.77 1024.82
1016.94 1018.03 1019.07 1020.02 1020.65 1021.40 1022.05 1022.64 1023.19 1023.68 1024.16 1024.64 1025.12 1025.71 1026.42 1027.37 1028.04 1028.45 1028.75 1028.45 1028.23 1028.28 1028.42 1028.55 1028.56 1029.14 1029.71 1029.99 1029.76 1029.18 1028.37 1028.96 1029.61 1029.86 1029.40 1029.25 1028.86 1028.41 1027.94 1027.36 1026.70 1026.13 1025.51
1016.45 1017.37 1018.40 1019.35 1020.04 1020.84 1021.57 1022.20 1022.79 1023.31 1023.88 1024.41 1024.93 1025.55 1026.29 1027.31 1028.01 1028.49 1028.86 1028.67 1028.19 1028.09 1028.23 1028.41 1028.83 1029.57 1030.32 1030.25 1030.09 1029.48 1028.90 1029.26 1029.55 1029.43 1029.48 1029.18 1028.72 1028.18 1027.86 1027.28 1026.73 1026.19 1025.54
1015.76 1016.54 1017.53 1018.56 1019.46 1020.30 1021.13 1021.72 1022.30 1022.98 1023.59 1024.16 1024.72 1025.32 1026.03 1027.36 1028.02 1028.43 1028.77 1028.35 1028.03 1027.87 1027.63 1028.02 1028.52 1029.25 1030.15 1030.26 1030.28 1029.84 1029.63 1029.95 1029.64 1029.44 1029.18 1028.72 1028.25 1027.78 1027.37 1027.07 1026.61 1026.05 1025.64
1014.93 1015.75 1016.75 1017.84 1018.80 1019.71 1020.46 1021.23 1021.93 1022.56 1023.19 1023.79 1024.37 1025.03 1025.74 1026.91 1027.88 1028.21 1028.54 1028.14 1027.83 1027.76 1027.81 1028.90 1029.41 1029.73 1030.14 1030.25 1030.28 1030.08 1030.08 1030.11 1029.79 1029.47 1028.97 1028.50 1028.04 1027.56 1027.20 1027.04 1026.76 1026.45 1026.06
1014.38 1015.25 1016.18 1017.26 1018.29 1019.23 1020.11 1020.89 1021.64 1022.23 1022.83 1023.44 1023.98 1024.72 1025.43 1026.33 1027.48 1027.89 1028.19 1028.20 1028.04 1027.90 1028.11 1028.67 1029.54 1030.01 1030.11 1030.13 1030.16 1030.09 1030.06 1029.95 1029.76 1029.48 1029.04 1028.63 1028.19 1027.77 1027.43 1027.04 1026.70 1026.46 1026.27
1013.86 1014.73 1015.56 1016.63 1017.73 1018.73 1019.70 1020.60 1021.36 1021.97 1022.59 1023.24 1023.81 1024.56 1025.14 1025.77 1026.72 1027.59 1027.88 1028.32 1028.40 1028.27 1028.39 1028.84 1029.63 1029.68 1029.79 1029.89 1030.01 1029.82 1029.76 1029.76 1029.68 1029.42 1029.13 1028.77 1028.40 1027.97 1027.59 1027.05 1026.58 1026.20 1026.02
1013.36 1014.31 1015.16 1016.15 1017.16 1018.14 1019.27 1020.30 1021.09 1021.70 1022.31 1022.95 1023.54 1024.28 1025.01 1025.53 1026.49 1027.12 1027.67 1028.09 1028.39 1028.69 1028.44 1029.03 1029.06 1029.33 1029.42 1029.57 1029.49 1029.62 1029.89 1029.60 1029.49 1029.48 1029.27 1028.90 1028.58 1028.11 1027.57 1027.07 1026.43 1026.01 1025.81
1012.80 1013.89 1014.84 1015.79 1016.71 1017.59 1018.70 1019.69 1020.56 1021.25 1021.88 1022.54 1023.18 1023.86 1024.51 1025.13 1026.16 1027.07 1027.55 1028.10 1028.55 1028.75 1028.66 1028.85 1028.96 1029.10 1029.13 1029.20 1029.42 1029.33 1029.31 1029.52 1029.43 1029.35 1029.23 1028.93 1028.55 1028.13 1027.75 1027.32 1026.74 1026.32 1026.03
1012.24 1013.37 1014.39 1015.37 1016.26 1017.08 1018.06 1018.97 1019.80 1020.54 1021.19 1021.87 1022.55 1023.07 1023.74 1024.47 1024.99 1025.68 1026.48 1027.23 1027.49 1027.91 1027.89 1028.17 1028.71 1028.73 1028.76 1028.82 1028.95 1029.02 1029.17 1029.28 1029.28 1029.22 1029.08 1028.87 1028.61 1028.29 1027.84 1027.39 1026.82 1026.38 1026.38
1011.57 1012.71 1013.79 1014.88 1015.91 1016.75 1017.76 1019.28 1019.58 1020.21 1020.87 1021.57 1022.11 1022.43 1022.96 1023.34 1024.28 1025.13 1025.93 1026.74 1027.15 1027.80 1027.98 1028.28 1028.41 1028.55 1028.81 1029.04 1029.05 1029.03 1029.19 1029.35 1029.26 1029.12 1029.00 1028.86 1028.74 1028.46 1028.02 1027.48 1026.95 1026.57 1026.45
1010.89 1012.15 1013.29 1014.36 1015.45 1016.33 1017.47 1018.69 1020.00 1020.81 1020.65 1021.19 1021.66 1022.10 1022.43 1023.39 1024.14 1024.93 1025.75 1026.46 1027.03 1027.46 1027.74 1027.97 1028.01 1028.29 1028.58 1028.46 1028.51 1028.78 1029.16 1029.21 1029.08 1029.00 1028.96 1028.89 1028.81 1028.56 1028.15 1027.74 1027.16 1026.83 1026.58
1010.50 1011.56 1012.69 1013.77 1014.86 1015.81 1016.80 1017.96 1019.02 1020.00 1020.80 1021.44 1021.80 1022.10 1022.64 1023.28 1024.00 1024.73 1025.45 1026.15 1027.15 1027.27 1027.40 1027.58 1027.53 1027.58 1027.77 1027.97 1028.20 1028.57 1028.88 1029.04 1029.02 1028.98 1028.95 1028.92 1028.81 1028.60 1028.20 1027.80 1027.33 1027.00 1026.76
1010.13 1011.14 1012.15 1013.32 1014.34 1015.32 1016.26 1017.36 1018.32 1019.35 1020.15 1021.04 1021.98 1022.59 1023.14 1023.48 1024.11 1024.70 1025.24 1025.56 1026.16 1026.59 1026.76 1026.81 1026.69 1026.93 1027.26 1027.57 1027.95 1028.42 1028.80 1028.97 1028.98 1028.91 1028.87 1028.86 1028.76 1028.59 1028.20 1027.81 1027.38 1027.04 1026.81
1009.72 1010.68 1011.72 1012.84 1013.94 1014.92 1015.76 1016.69 1017.63 1018.54 1019.40 1020.19 1020.99 1021.80 1022.95 1023.78 1024.45 1024.80 1025.03 1025.24 1025.35 1025.44 1025.54 1025.77 1025.96 1026.37 1026.83 1027.26 1027.63 1028.07 1028.44 1028.64 1028.74 1028.70 1028.74 1028.77 1028.65 1028.50 1028.22 1027.84 1027.47 1027.20 1026.83
1009.55 1010.45 1011.34 1012.50 1013.46 1014.37 1015.26 1016.03 1016.77 1017.61 1018.36 1019.04 1019.71 1020.40 1021.18 1022.00 1022.98 1023.61 1024.09 1024.42 1024.64 1024.71 1024.81 1025.08 1025.43 1025.86 1026.41 1026.90 1027.28 1027.66 1027.98 1028.31 1028.41 1028.41 1028.47 1028.51 1028.39 1028.27 1028.03 1027.73 1027.39 1027.08 1026.76
1009.57 1010.39 1011.32 1012.11 1013.06 1013.99 1014.74 1015.51 1016.16 1016.72 1017.38 1018.05 1018.79 1019.66 1020.60 1021.25 1021.88 1022.43 1022.91 1023.30 1023.55 1023.74 1023.92 1024.37 1024.96 1025.21 1025.70 1026.28 1026.76 1027.32 1027.67 1027.89 1027.95 1028.12 1028.26 1028.27 1028.20 1028.06 1027.83 1027.54 1027.24 1026.96 1026.63
1009.84 1010.55 1011.33 1012.12 1012.74 1013.50 1014.28 1014.97 1015.60 1016.09 1016.63 1017.21 1017.92 1018.87 1019.87 1020.23 1020.59 1021.11 1021.65 1022.14 1022.63 1022.91 1023.28 1023.76 1024.37 1024.94 1025.20 1025.71 1026.20 1026.79 1027.25 1027.33 1027.47 1027.74 1028.06 1028.16 1028.02 1027.84 1027.66 1027.36 1027.07 1026.83 1026.57
1010.28 1010.79 1011.40 1012.04 1012.75 1013.42 1013.99 1014.54 1015.07 1015.55 1016.04 1016.60 1017.18 1017.84 1018.44 1019.04 1019.56 1020.00 1020.59 1021.34 1021.77 1022.41 1022.75 1023.31 1023.73 1024.28 1024.81 1025.46 1025.89 1026.31 1026.65 1026.88 1027.15 1027.48 1027.64 1027.78 1027.77 1027.59 1027.42 1027.17 1026.90 1026.63 1026.42
1010.84 1011.14 1011.56 1012.06 1012.62 1013.20 1013.78 1014.26 1014.70 1015.11 1015.57 1015.95 1016.40 1016.96 1017.49 1018.12 1018.91 1019.51 1020.04 1020.73 1021.27 1021.94 1022.43 1022.92 1023.26 1023.77 1024.44 1025.07 1025.60 1025.95 1026.28 1026.72 1027.05 1027.26 1027.41 1027.36 1027.31 1027.24 1027.12 1026.88 1026.69 1026.44 1026.20
1011.50 1011.80 1012.07 1012.24 1012.44 1012.91 1013.36 1013.71 1014.00 1014.46 1014.92 1015.42 1015.95 1016.34 1016.71 1017.30 1018.04 1018.80 1019.46 1020.09 1020.75 1021.37 1021.87 1022.43 1022.79 1023.33 1024.06 1024.70 1025.17 1025.63 1025.92 1026.31 1026.76 1026.95 1027.07 1027.04 1026.94 1026.85 1026.76 1026.61 1026.43 1026.23 1025.99
Wind_Speed
12 11 10 8 7 7 6 7 7 7 6 6 6 6 6 5 6 5 5 5 6 6 6 5 4 5 4 4 4 3 4 4 5 6 5 6 7 7 7 9 8 11 11
13 11 10 9 9 8 7 7 7 7 6 6 6 6 6 5 6 6 7 5 6 6 5 5 5 5 7 7 5 6 5 5 4 10 7 7 6 11 9 12 10 10 11
14 12 11 10 10 8 8 8 7 7 7 7 6 6 6 6 6 5 5 5 5 5 4 5 6 6 6 5 6 5 5 6 5 5 7 5 6 6 11 9 11 10 10
14 13 12 11 10 9 10 10 8 7 7 7 6 6 6 6 5 5 5 4 2 5 4 0 6 5 4 5 6 5 5 5 5 5 6 7 8 9 7 10 11 9 10
14 14 13 11 10 10 9 9 9 7 7 7 6 7 6 5 4 4 5 4 2 3 2 2 6 6 4 1 2 4 5 4 4 5 6 9 8 10 11 10 9 9 10
15 14 14 12 11 11 10 10 8 7 7 7 7 7 6 4 10 8 5 1 1 4 3 4 4 7 5 4 8 12 9 4 4 5 6 8 9 9 8 8 8 9 8
15 15 15 14 14 13 12 11 10 8 7 7 7 7 6 7 10 8 3 5 1 3 3 3 4 7 9 6 9 14 7 11 5 4 8 8 9 9 9 10 10 9 8
17 16 16 16 14 13 12 11 10 7 7 6 6 7 7 8 12 9 4 5 3 3 4 2 4 6 6 6 6 8 6 9 5 6 6 7 8 9 8 8 9 9 7
17 17 17 16 15 14 13 11 9 9 7 7 7 7 7 8 11 11 6 6 5 3 2 3 5 6 7 9 5 6 6 7 8 11 11 11 12 12 7 5 6 6 7
18 17 17 17 15 15 13 11 10 9 9 7 8 7 8 10 12 12 7 4 2 2 1 7 12 8 5 4 4 5 6 5 6 7 6 7 9 8 10 6 7 5 5
16 16 17 16 15 14 12 9 10 9 9 7 7 7 7 12 10 13 10 4 3 2 1 5 5 5 2 3 3 3 4 5 5 5 4 4 5 6 6 5 6 2 5
16 16 16 16 13 12 13 11 10 9 8 8 7 6 5 8 13 11 11 7 3 2 3 5 5 3 1 3 4 4 7 4 3 5 3 4 5 5 6 6 6 4 2
16 15 15 16 14 13 13 12 9 9 6 7 6 5 5 6 7 13 12 8 4 1 2 3 3 3 7 5 10 10 5 2 3 3 4 4 4 4 7 6 5 4 4
16 15 14 14 14 12 11 10 9 8 6 8 6 6 5 5 6 6 5 5 4 3 4 3 5 6 5 4 3 3 3 4 3 2 3 3 4 3 4 4 5 3 2
16 14 14 12 14 11 11 10 10 8 9 8 7 7 8 6 6 11 9 7 6 5 4 2 3 4 1 1 1 3 2 3 3 2 2 4 3 5 4 5 4 2 2
15 13 11 10 11 9 9 4 12 10 12 12 12 8 5 11 14 17 14 13 12 8 3 2 2 2 1 2 2 2 2 3 2 2 2 2 4 5 6 6 4 2 2
15 14 10 11 11 10 8 9 6 6 7 12 10 12 13 11 19 19 18 15 12 7 2 3 3 3 3 3 2 3 1 1 3 2 1 2 4 5 6 5 5 3 2
14 13 12 11 11 9 10 10 9 10 9 4 3 8 13 17 18 18 17 12 3 1 3 4 3 4 3 2 2 3 2 2 1 2 2 1 3 4 5 5 5 3 2
13 11 11 10 10 10 9 10 9 9 9 7 4 3 7 13 15 16 15 4 6 6 5 5 4 4 3 3 4 3 2 1 2 2 1 1 2 4 5 5 5 5 3
13 12 10 11 9 10 9 10 9 10 9 9 9 9 8 6 7 7 6 5 4 5 5 5 5 5 4 3 3 4 2 1 1 2 1 1 2 3 4 5 4 4 3
6 5 12 10 10 10 9 10 11 10 11 10 10 11 18 12 10 10 9 8 7 4 4 5 4 4 4 3 3 4 3 2 2 1 2 2 2 4 4 4 3 4 3
5 6 7 10 8 10 10 9 10 11 11 11 9 9 18 9 10 10 10 9 8 7 5 5 4 5 4 4 4 4 3 3 2 1 1 2 2 2 3 3 3 4 3
4 6 6 7 7 8 7 8 9 9 10 10 9 10 12 11 10 10 10 8 8 7 5 5 5 4 4 4 4 4 4 3 2 2 1 2 3 3 3 3 3 4 2
1 6 6 5 5 6 8 7 7 8 9 9 9 11 13 12 9 9 8 8 7 5 5 5 6 7 5 5 4 3 3 2 2 1 2 2 4 4 3 3 3 4 3
3 4 4 5 5 6 5 6 5 6 6 8 7 9 11 10 9 8 8 9 8 8 7 6 5 8 8 9 7 7 7 6 4 2 2 3 4 5 4 3 3 5 3
4 4 1 3 3 5 6 6 6 7 8 6 8 8 10 10 10 9 9 10 9 8 9 7 7 8 10 8 8 8 7 7 5 5 3 3 4 3 2 3 5 2 4
Wind_Direction
150 159 155 152 140 134 146 134 124 121 141 130 128 120 115 107 106 105 102 66 70 65 33 56 29 11 3 19 354 344 348 11 327 320 310 326 337 4 344 347 353 348 343
155 159 155 147 144 152 142 132 133 145 148 138 150 130 122 107 89 80 61 70 62 56 35 35 38 17 22 18 348 354 6 344 330 316 337 339 354 348 355 347 352 344 339
157 159 157 156 156 158 144 136 154 156 150 154 152 142 124 120 109 100 101 85 86 79 49 32 51 38 23 3 341 359 351 344 329 336 323 334 356 337 350 347 344 340 335
162 159 160 161 162 153 153 151 156 165 158 152 151 135 125 140 134 120 110 106 82 111 107 153 103 77 48 9 358 358 345 338 339 334 337 343 336 357 348 344 341 339 334
162 163 163 162 161 151 155 162 155 159 162 153 154 137 153 136 123 82 123 121 110 91 130 58 119 118 142 103 341 323 328 335 343 348 342 335 343 347 352 340 324 324 329
164 166 161 164 161 166 165 168 162 164 165 166 153 150 153 126 103 85 26 358 118 83 23 37 98 151 208 197 265 272 260 277 318 350 330 347 340 336 332 326 321 337 343
165 165 165 171 174 169 168 170 167 173 160 161 157 152 154 127 124 117 76 294 100 100 68 42 354 78 53 14 348 319 314 227 231 300 346 343 325 319 320 319 324 330 324
170 171 170 174 174 168 171 175 167 169 163 163 164 163 159 145 142 143 164 273 270 147 135 118 86 80 61 33 340 314 2 60 19 356 335 316 308 306 305 302 308 310 306
176 177 171 173 174 171 176 174 167 167 168 169 172 169 144 139 152 160 177 242 222 210 159 108 121 90 61 32 327 325 32 23 348 350 323 314 304 303 294 310 323 324 340
181 179 171 173 178 177 176 174 172 169 170 174 173 168 154 151 172 172 186 259 202 236 91 104 71 81 62 26 345 337 25 335 322 322 317 328 328 336 339 341 330 359 337
180 176 171 173 180 175 173 172 172 173 172 179 169 158 151 148 174 179 184 256 331 97 329 114 102 108 82 5 8 8 346 315 311 303 323 318 330 339 335 326 327 307 342
178 177 173 172 178 172 170 172 176 178 173 173 157 151 157 147 157 184 178 209 25 11 335 93 124 122 355 294 306 305 320 318 323 334 328 323 336 334 323 320 312 328 307
177 179 174 170 176 168 171 173 176 181 176 171 167 156 170 146 154 165 171 177 171 209 63 87 111 234 266 282 257 255 287 332 340 337 334 333 327 310 321 316 327 330 343
175 176 173 171 174 168 172 174 178 179 175 172 174 166 168 155 141 151 161 168 181 196 250 223 216 222 251 269 317 190 66 353 320 317 319 305 311 319 323 321 328 330 342
174 177 177 174 175 174 174 176 181 184 176 175 179 168 165 174 172 162 164 175 177 190 155 182 203 212 223 4 5 98 51 351 339 310 323 330 334 339 318 329 313 341 360
175 178 176 171 178 176 162 127 43 167 165 176 170 164 164 159 146 150 140 128 119 144 120 206 227 134 168 253 229 115 86 349 310 306 304 320 341 333 327 327 322 347 340
178 178 173 170 176 173 157 157 143 20 87 142 145 158 145 149 145 141 136 132 133 123 156 236 173 170 202 230 165 131 123 342 321 315 347 336 341 327 325 325 329 328 342
182 171 175 174 174 173 167 167 164 164 166 156 95 132 139 143 143 140 138 119 130 186 210 235 200 190 204 200 143 111 77 309 315 321 327 338 333 324 324 328 333 344 339
180 176 172 174 173 179 174 168 171 171 175 169 124 75 142 141 144 147 154 157 174 187 196 213 203 184 189 171 123 119 124 281 288 267 334 318 325 321 318 320 326 321 340
183 176 164 169 168 176 176 172 174 175 178 179 181 175 146 128 163 174 187 194 192 202 199 191 183 177 163 141 138 136 169 275 315 323 327 336 307 309 308 316 326 327 318
166 150 162 167 172 178 180 180 180 178 185 188 189 180 173 175 177 184 187 195 201 200 200 184 165 158 148 152 155 134 143 193 227 296 326 295 281 303 307 300 305 303 299
140 138 159 169 164 177 185 182 188 185 186 187 181 171 171 182 181 187 190 193 195 197 191 163 160 156 157 168 154 146 163 202 204 246 293 304 279 288 295 300 302 301 294
130 131 156 162 168 165 175 185 190 190 187 185 175 162 178 193 188 189 189 181 185 187 172 153 153 153 146 142 139 153 166 180 188 138 308 288 292 294 298 304 305 310 325
173 139 157 150 144 170 185 188 189 190 187 183 176 173 183 190 187 185 173 171 176 170 153 152 163 161 156 145 144 155 168 159 129 199 226 249 278 288 288 293 290 291 287
332 128 150 159 154 171 174 189 190 186 189 184 178 179 185 185 177 176 164 169 169 168 166 167 159 166 163 161 164 182 142 158 170 201 227 239 264 276 276 263 279 283 281
36 63 161 210 173 172 185 192 187 183 185 178 185 180 183 182 178 175 169 168 171 176 176 183 165 157 161 174 178 186 175 171 194 212 220 249 259 272 267 282 296 291 295